Simultaneous Nadir Overpasses (SNOs) Predictions

Prediction of SNOs between AQUA and NOAA-19 Satellite Orbit:

Table of predicted SNOs for the next 14.0 days since TLE Epoch: 5/3/2019
Index Date (AQUA) Time (AQUA) Lat,Lon (AQUA) SZA (AQUA ) Date (NOAA-19) Time (NOAA-19) Lat,Lon (NOAA-19) SZA (NOAA-19 ) Distance(km) Time Diff (sec)
1 05/04/2019 23:17:06 -80.45, -23.74 114.01 05/04/2019 23:16:56 -80.46, -23.80 113.99 1.50 10
2 05/07/2019 04:50:50 80.44, 72.88 65.35 05/07/2019 04:50:27 80.45, 72.73 65.38 2.98 23
3 05/07/2019 05:40:16 -80.45,-119.58 114.65 05/07/2019 05:41:23 -80.46,-119.71 114.65 2.64 67
4 05/09/2019 10:24:32 -80.43, 169.58 115.28 05/09/2019 10:23:50 -80.45, 169.57 115.25 2.65 42
5 05/09/2019 11:14:00 80.45, -23.00 64.75 05/09/2019 11:14:53 80.46, -23.02 64.74 1.40 53
6 05/11/2019 15:58:16 80.43, -93.88 64.14 05/11/2019 15:57:20 80.44, -93.93 64.18 1.68 56
7 05/11/2019 16:47:42 -80.44, 73.70 115.86 05/11/2019 16:48:17 -80.46, 73.63 115.85 2.51 35
8 05/13/2019 21:31:59 -80.45, 2.50 116.39 05/13/2019 21:30:45 -80.43, 2.55 116.37 2.39 74
9 05/13/2019 22:21:26 80.44, 170.20 63.60 05/13/2019 22:21:46 80.46, 170.27 63.59 1.76 20




NCC Satellite Simultaneous Nadir Overpasses (SNOs) Prediction Service
